GFSNE_con_lsi_159.txt.gz
Lid_Strength_Index
3 5 6 6 5 6 6 5 6 8 8 8 8 8 7 6 5 4 4 4 4 4 5 6 7 7 7 7 7 7 7 7 6 6 5 5 4 4
5 6 6 7 7 7 6 6 6 6 7 7 8 8 8 8 5 5 5 5 5 6 7 7 8 8 8 7 7 7 7 6 6 6 6 5 4 4
5 6 7 6 7 7 7 6 6 6 7 9 8 10 9 7 9 8 9 9 7 6 7 7 8 8 7 7 7 6 6 6 6 6 6 5 5 4
6 6 7 6 7 6 6 6 6 7 8 9 10 10 10 9 10 10 10 11 10 8 8 7 7 7 7 6 6 6 7 7 7 6 6 6 5 5
6 6 7 7 7 7 7 7 7 7 7 8 11 10 10 10 11 11 11 11 10 8 7 6 6 5 6 7 6 7 7 7 7 7 6 6 6 6
6 6 6 6 7 7 7 8 8 9 9 9 11 11 11 11 11 12 12 11 11 10 8 7 6 6 6 6 6 7 8 8 7 7 7 7 7 7
7 7 7 6 5 6 8 9 9 10 10 11 11 12 12 11 11 11 10 9 9 9 8 9 8 8 8 9 8 7 7 8 7 7 7 7 7 6
8 7 6 6 6 6 7 8 9 10 11 10 10 10 11 10 10 10 10 10 11 9 9 9 9 9 9 8 8 7 7 7 8 7 7 7 7 7
8 8 8 8 8 8 7 7 6 6 7 8 10 10 11 11 10 10 10 10 10 10 10 11 10 10 9 8 7 8 8 8 8 8 7 7 7 7
9 9 8 8 7 9 9 10 10 10 9 10 10 10 10 10 10 10 10 10 10 9 9 10 9 9 9 8 9 8 8 8 8 8 8 8 8 7
7 7 8 8 7 8 9 10 9 9 7 7 7 7 8 8 9 9 10 10 11 10 10 10 9 10 9 9 8 8 8 8 8 8 8 7 7 7
7 7 7 7 7 8 9 9 9 9 9 8 8 8 8 7 8 9 9 11 11 11 9 10 10 10 11 8 8 8 8 9 8 8 8 8 7 7
8 8 7 7 7 8 8 7 7 7 8 8 8 8 8 8 8 8 8 9 10 10 8 8 9 9 10 10 9 8 8 9 8 8 9 9 8 7
9 8 7 6 5 5 5 5 5 6 7 7 8 8 8 8 7 7 7 7 7 8 7 7 9 9 10 11 11 9 9 8 8 9 8 9 8 8
7 7 7 6 6 6 6 6 7 7 8 8 9 9 8 8 7 7 7 7 7 7 8 8 8 9 10 11 11 11 10 9 9 9 9 9 9 8
7 8 7 7 7 8 8 7 7 7 8 8 8 7 7 7 8 7 8 8 8 8 7 7 8 9 10 10 10 10 10 11 9 9 9 9 8 7
9 9 10 10 10 10 9 9 8 8 8 8 8 8 8 8 8 7 8 8 9 10 10 9 8 8 9 10 11 10 10 10 9 9 9 9 8 7
9 10 10 10 10 10 10 9 9 8 8 8 8 8 9 10 9 8 8 8 9 10 9 9 9 10 10 10 9 10 10 10 9 8 8 10 10 7
9 10 10 10 10 9 9 9 9 8 8 8 9 9 9 9 9 9 9 9 9 9 9 8 9 10 12 13 10 8 10 10 9 10 9 9 9 8
9 10 10 10 10 9 9 9 8 8 8 9 10 10 10 10 11 10 10 10 9 9 9 8 9 9 11 12 12 10 8 9 10 10 10 8 7 6
9 10 9 10 10 10 9 9 9 9 9 9 9 9 9 10 11 11 10 10 9 9 9 9 8 7 8 8 11 11 10 8 8 9 9 10 9 8
9 9 9 10 10 10 9 9 9 9 9 9 9 9 9 10 10 11 10 9 9 8 7 6 6 7 8 10 12 11 11 9 8 8 8 9 9 11
9 9 9 10 10 10 9 9 9 9 9 10 9 10 10 10 10 10 10 9 9 8 7 7 6 7 9 10 11 11 11 11 10 10 9 8 8 8

GFSNE_con_lsi_162.txt.gz
Lid_Strength_Index
1 3 3 4 5 4 4 4 5 7 5 4 5 5 4 4 4 4 3 4 3 4 5 6 7 7 7 7 7 7 7 7 7 6 6 6 5 4
2 3 5 5 6 4 4 4 4 5 6 5 6 6 5 6 5 4 4 4 5 6 6 7 8 8 8 8 8 8 8 8 7 6 6 6 4 4
4 5 6 5 6 6 5 5 5 5 6 7 7 7 8 7 8 8 8 7 6 6 7 7 8 8 8 8 8 8 8 8 6 6 5 6 5 5
5 6 6 5 6 6 5 5 6 5 7 9 10 10 10 9 9 10 10 10 9 7 7 8 7 7 8 7 7 7 6 7 7 6 5 6 6 6
5 5 6 6 7 6 6 6 6 6 7 8 10 10 10 10 11 10 10 10 10 9 8 7 7 7 7 7 6 7 7 7 7 7 7 6 7 6
5 5 6 6 6 6 7 7 7 7 7 9 10 10 10 11 10 11 12 11 11 9 8 7 6 6 6 6 6 7 8 8 8 8 7 7 7 6
6 6 6 6 5 6 7 8 8 8 9 10 11 11 12 12 11 10 9 8 8 7 7 7 7 7 7 8 8 7 7 8 8 8 7 7 7 7
7 6 5 5 5 5 6 7 8 10 11 10 9 9 9 8 8 8 8 9 10 8 9 8 8 8 8 7 8 8 7 8 8 8 8 7 7 7
8 8 8 7 7 7 7 7 7 7 6 6 8 8 9 8 8 8 8 9 9 8 9 9 8 9 7 8 8 7 8 8 8 8 7 7 7 7
9 8 7 7 7 7 8 8 8 8 8 8 8 9 9 8 8 9 9 8 8 8 8 10 8 8 7 7 8 7 8 8 8 7 7 7 7 7
6 6 6 7 7 7 7 8 8 8 7 7 7 7 8 8 8 7 9 9 10 9 8 9 9 9 8 8 7 8 7 8 8 7 7 7 7 7
6 6 6 6 7 7 6 6 7 6 6 6 6 6 6 6 7 7 7 8 9 9 7 9 9 9 10 8 8 7 7 7 8 7 7 7 7 7
7 7 6 6 6 6 6 5 6 5 6 6 6 6 6 6 6 6 7 8 9 10 7 8 9 9 9 10 9 8 7 7 7 7 7 8 8 8
7 6 5 5 5 5 5 5 5 6 5 6 6 7 7 7 7 7 7 6 7 7 7 7 8 9 10 11 11 9 8 8 8 8 8 7 7 7
6 6 6 6 6 6 6 6 6 5 6 6 7 7 7 6 6 7 6 6 6 6 6 7 8 8 9 10 11 10 10 9 8 8 8 8 8 7
7 7 7 7 7 8 7 7 6 6 7 7 7 7 7 8 8 7 7 7 7 7 6 6 6 7 9 9 10 10 9 11 9 9 9 9 8 7
8 8 8 8 9 9 8 8 7 7 7 7 7 8 8 8 8 7 8 8 8 9 9 7 6 6 7 8 10 9 10 10 9 10 9 10 8 7
8 8 8 8 9 9 9 9 8 8 7 8 9 9 10 9 9 8 8 8 9 10 9 8 8 9 8 7 7 9 9 10 10 10 9 10 9 7
8 8 8 8 9 9 9 9 8 8 8 8 9 9 9 9 9 9 9 9 10 9 8 7 7 8 10 10 7 7 9 9 10 10 9 9 10 8
8 8 8 8 9 9 8 9 8 8 8 8 9 9 10 10 10 10 10 10 10 9 9 7 7 7 8 9 10 8 7 9 10 11 10 9 8 7
8 8 7 8 8 8 8 8 8 8 8 8 9 10 10 10 10 10 10 10 10 9 9 8 6 4 5 6 9 10 8 7 8 9 10 10 10 9
7 8 7 8 8 8 8 8 8 9 9 9 10 10 10 9 10 10 10 11 11 10 8 7 5 5 6 8 10 10 10 8 7 7 8 9 10 12
7 7 7 7 8 8 8 8 8 9 10 10 10 10 10 11 10 10 10 10 10 10 9 9 8 7 8 9 10 10 10 10 10 9 9 8 8 9

GFSNE_con_lsi_168.txt.gz
Lid_Strength_Index
1 2 2 3 3 3 3 4 5 7 8 6 6 5 5 6 4 5 4 2 3 2 2 4 5 5 6 6 7 7 7 7 7 7 6 6 6 6
1 2 2 3 4 4 3 3 3 5 7 5 7 7 6 6 5 6 4 3 2 3 4 5 6 6 6 7 7 8 8 8 8 8 7 7 6 6
2 2 4 4 4 4 4 4 5 5 7 8 8 8 8 8 9 9 8 7 6 5 6 7 7 7 7 7 8 8 8 8 8 8 8 7 7 6
2 3 4 4 4 4 5 6 6 5 6 8 9 9 9 9 10 10 9 8 8 5 6 6 6 6 7 7 7 8 7 8 9 8 8 7 8 7
3 4 5 4 5 5 6 6 6 6 7 8 10 9 10 9 10 10 9 9 8 7 7 6 6 6 6 6 7 7 8 8 8 8 8 7 7 7
4 5 5 5 5 6 6 7 7 7 8 9 9 10 10 10 10 10 11 10 10 9 8 7 6 7 7 7 7 6 7 8 8 8 8 8 7 7
5 5 5 5 4 5 7 7 7 8 8 9 10 10 11 11 11 10 11 11 11 10 10 9 10 9 8 6 7 7 7 7 8 8 8 8 8 8
7 6 5 4 4 4 4 5 6 8 9 10 10 10 11 11 10 10 11 10 10 10 11 11 10 11 10 9 6 7 7 6 7 8 8 7 7 7
7 7 7 7 7 7 6 6 6 5 6 10 11 11 11 11 10 10 10 10 10 9 9 10 9 9 8 5 5 5 5 5 6 6 7 7 7 7
6 6 7 7 8 9 9 9 8 8 9 9 11 11 11 10 10 10 10 10 9 9 9 12 9 9 8 8 5 5 5 5 6 6 6 6 6 6
8 8 9 9 5 5 8 9 9 8 5 5 5 5 6 6 7 9 11 11 12 11 9 11 11 11 10 10 6 5 6 5 5 5 6 6 6 6
8 8 5 6 4 4 8 9 10 10 9 9 8 7 7 7 6 10 10 12 12 13 10 11 10 9 12 10 8 8 8 6 6 6 6 6 6 9
8 8 8 5 4 4 5 8 9 9 8 9 10 10 10 10 10 9 8 8 10 9 7 8 9 9 9 10 10 9 10 9 8 7 6 6 6 7
8 8 7 5 5 5 6 5 5 7 9 10 10 11 11 11 10 10 7 7 6 7 7 7 8 9 9 9 11 10 9 9 8 8 8 7 7 7
7 6 6 5 6 7 6 6 7 10 10 11 12 12 11 11 9 8 7 7 7 7 6 7 8 9 9 11 11 11 10 10 8 9 9 8 8 9
7 8 7 7 7 8 9 9 10 10 11 11 12 12 11 11 10 8 11 10 10 9 8 8 8 9 11 11 9 9 9 8 7 9 10 9 8 9
9 10 11 11 11 11 11 10 10 10 11 12 12 12 11 10 11 10 10 10 11 12 11 9 9 9 10 11 11 9 8 6 7 9 9 9 10 9
9 11 12 12 12 12 12 12 11 11 12 12 12 11 11 11 11 10 10 10 11 11 10 10 10 11 11 10 6 8 7 7 7 7 8 10 12 10
10 11 12 12 12 12 12 12 12 12 12 12 12 12 11 11 12 12 11 11 12 12 11 10 9 11 13 13 11 5 8 7 7 8 9 11 12 10
10 11 11 11 12 12 12 12 12 12 12 11 11 11 11 11 12 12 12 12 12 12 12 11 10 11 12 11 11 9 6 9 9 9 10 10 10 7
10 10 11 11 11 11 11 12 12 12 12 11 11 11 11 12 12 13 13 12 12 12 12 13 11 7 9 10 13 12 10 7 7 9 10 11 12 12
10 10 10 11 11 11 11 12 12 12 13 12 11 12 12 13 13 13 13 13 12 12 12 11 10 10 11 11 12 12 12 11 9 7 6 7 12 14
10 10 11 11 11 11 12 12 13 13 12 11 12 13 13 14 14 14 13 11 11 11 11 12 11 10 10 10 10 12 12 13 12 12 12 8 7 7

GFSNE_con_lsi_171.txt.gz
Lid_Strength_Index
2 2 2 3 3 3 3 3 5 7 7 5 5 4 5 5 4 5 5 2 2 2 2 3 4 4 5 5 6 6 6 6 6 7 7 7 6 6
1 2 2 3 3 3 3 3 4 5 7 7 7 6 6 6 5 5 4 2 2 3 3 4 5 6 6 7 7 8 8 8 7 7 7 7 7 6
1 2 3 3 3 4 3 4 5 5 8 8 8 8 8 8 9 8 7 7 5 4 5 6 6 6 7 7 7 8 7 8 8 8 7 7 7 7
2 2 3 3 4 3 4 5 6 5 6 8 9 9 9 9 9 9 8 7 7 5 5 5 6 6 6 6 7 7 7 8 8 8 8 8 7 8
3 3 4 4 5 5 5 6 6 6 7 8 10 9 9 9 9 9 9 9 7 7 6 6 6 6 6 6 6 7 7 8 8 9 8 8 8 7
4 4 4 4 5 5 6 7 7 7 8 9 9 10 9 9 9 9 10 9 9 8 6 6 6 6 6 6 6 6 7 8 8 8 8 8 8 8
4 5 5 4 4 5 6 7 7 8 9 9 10 10 10 10 9 9 9 10 10 9 9 9 8 8 7 5 6 6 6 6 7 7 7 7 8 7
7 6 4 4 4 4 4 5 6 8 9 10 9 10 11 11 11 10 10 10 11 9 10 10 9 9 9 7 4 4 5 4 4 5 6 6 6 6
7 8 8 7 8 8 6 5 5 5 6 10 12 12 13 12 12 12 12 11 12 10 10 11 10 10 8 5 4 4 5 5 5 5 5 5 5 5
7 7 8 9 9 9 9 9 10 10 10 10 11 12 11 11 11 11 11 11 11 10 11 12 11 11 8 8 4 4 5 5 5 5 5 5 5 5
8 9 9 8 5 6 9 9 9 9 5 5 5 5 5 5 7 10 12 12 13 12 11 12 11 11 11 9 8 5 5 5 5 5 5 4 4 5
9 8 4 6 4 5 9 10 10 10 9 9 9 8 8 8 7 11 11 12 13 13 11 12 11 9 12 11 10 9 10 6 5 5 5 5 5 7
9 9 6 4 4 5 6 9 9 9 8 11 11 11 11 11 11 10 10 10 10 12 8 10 11 11 11 11 10 10 10 10 10 8 5 5 5 5
9 9 6 4 4 5 6 5 5 8 10 11 11 12 12 12 11 10 8 8 7 9 9 9 10 10 12 12 12 10 10 10 10 9 8 7 6 6
8 6 5 5 6 6 6 6 7 10 11 12 13 13 13 12 10 9 10 10 9 9 8 10 10 11 11 12 12 12 10 11 10 8 9 9 10 10
7 9 8 7 7 8 10 10 10 11 12 13 13 13 12 12 10 9 10 10 11 11 10 9 10 10 12 12 11 12 11 10 7 7 8 8 8 7
10 11 12 12 12 12 12 11 12 12 13 13 13 13 12 11 11 10 12 12 13 13 12 11 10 11 10 11 12 10 10 9 8 8 8 8 8 9
11 12 13 13 13 13 13 13 13 12 13 13 13 13 13 13 11 11 11 12 14 13 14 13 12 12 12 11 8 11 11 11 9 8 7 9 9 9
12 13 13 13 13 13 13 13 13 13 13 13 13 12 12 12 12 12 12 12 12 12 11 12 12 14 14 13 11 7 10 11 10 10 8 9 10 9
11 12 13 13 13 13 13 13 13 13 13 13 13 13 12 12 13 12 12 12 11 11 11 11 12 12 12 14 13 11 7 10 11 11 10 9 8 6
11 12 12 12 13 13 13 13 13 14 13 13 13 14 14 14 14 13 12 10 10 11 12 11 10 6 9 11 13 12 11 8 8 10 10 11 11 11
11 12 12 12 12 13 13 13 13 13 14 14 14 14 14 14 14 13 11 12 12 11 11 10 9 8 10 11 11 12 12 11 10 8 7 8 11 14
11 12 12 12 12 13 13 13 14 14 14 14 14 14 13 14 13 12 12 12 11 11 10 10 10 10 11 11 11 12 12 12 12 13 12 8 7 7